Amsterdam, Netherlands

5:58 PM CEST on June 27, 2017 (GMT +0200)
Schiphol

Weather History for EHAM - October, 2011

Change the Weather History Date:

Friday, October 28, 2011

  Actual Average Record
Temperature  
Mean Temperature 53 °F -  
Max Temperature 58 °F 49 °F 66 °F (2005)
Min Temperature 48 °F 39 °F 30 °F (1997)
Degree Days  
Heating Degree Days 12    
Growing Degree Days 3 (Base 50)    
Moisture  
Dew Point 52 °F    
Average Humidity 93    
Maximum Humidity 100    
Minimum Humidity 85    
Precipitation  
Precipitation 0.00 in - - ()
Sea Level Pressure  
Sea Level Pressure 30.14 in    
Wind  
Wind Speed 5 mph ()    
Max Wind Speed 9 mph    
Max Gust Speed -    
Visibility 4.3 miles    
Events Fog , Rain    
Averages and records for this station are not official NWS values.
T = Trace of Precipitation, MM = Missing Value Source: Averaged Metar Reports

Daily Weather History Graph

Daily Weather History Graph

Search for Another Location

Airport or City:

Trip Planner

Search our weather history database for the weather conditions in past years. The results will help you decide how hot, cold, wet, or windy it might be!

Date:

Astronomy

Oct. 28, 2011 Rise Set
Actual Time 8:28 AM CEST 6:20 PM CEST
Civil Twilight 7:53 AM CEST 6:55 PM CEST
Nautical Twilight 7:13 AM CEST 7:35 PM CEST
Astronomical Twilight 6:33 AM CEST 8:14 PM CEST
Moon 10:48 AM CEST (10/28) 7:04 PM CEST (10/28)
Length of Visible Light 11h 02m
Length of Day
9h 51m
Waxing Crescent, 4% of the Moon is Illuminated
Oct 28
Waxing Crescent
Nov 2
First Quarter
Nov 10
Full
Nov 18
Last Quarter
Nov 25
New

Hourly Weather History & Observations

Time (CEST) Temp. Dew Point Humidity Pressure Visibility Wind Dir Wind Speed Gust Speed Precip Events Conditions
12:25 AM 50.0 °F 46.4 °F 87% 29.95 in - SSE 9.2 mph - N/A   Clear
12:55 AM 50.0 °F 46.4 °F 87% 29.95 in - South 4.6 mph - N/A   Clear
1:25 AM 48.2 °F 46.4 °F 93% 29.95 in - SSE 5.8 mph - N/A   Clear
1:55 AM 50.0 °F 46.4 °F 87% 29.98 in - SSE 6.9 mph - N/A   Clear
2:00 AM 50 °F 47 °F 85% 29.98 in 8 mi SSE 6.7 mph - -   Overcast
2:25 AM 50.0 °F 46.4 °F 87% 29.98 in - SSE 9.2 mph - N/A   Clear
2:55 AM 50.0 °F 46.4 °F 87% 29.98 in - SSE 6.9 mph - N/A   Clear
3:25 AM 50.0 °F 46.4 °F 87% 30.01 in - South 8.1 mph - N/A   Clear
3:55 AM 50.0 °F 46.4 °F 87% 30.01 in - South 9.2 mph - N/A   Clear
4:25 AM 50.0 °F 48.2 °F 94% 30.01 in - South 9.2 mph - N/A   Clear
4:55 AM 51.8 °F 48.2 °F 88% 30.01 in - South 6.9 mph - N/A   Clear
5:00 AM 51 °F 48 °F 85% 30.03 in 10 mi South 6.7 mph - -   Overcast
5:25 AM 51.8 °F 48.2 °F 88% 30.01 in - SSE 5.8 mph - N/A   Clear
5:55 AM 51.8 °F 48.2 °F 88% 30.01 in - SSE 4.6 mph - N/A   Clear
6:25 AM 51.8 °F 48.2 °F 88% 30.04 in - SSW 4.6 mph - N/A   Clear
6:55 AM 50.0 °F 48.2 °F 94% 30.06 in - South 5.8 mph - N/A   Clear
7:25 AM 50.0 °F 48.2 °F 94% 30.06 in - South 4.6 mph - N/A   Clear
7:55 AM 50.0 °F 48.2 °F 94% 30.06 in - SSE 4.6 mph - N/A   Clear
8:00 AM 50 °F 48 °F 92% 30.09 in 9 mi SSE 4.5 mph - -   Overcast
8:25 AM 50.0 °F 48.2 °F 94% 30.09 in 6.2 mi South 4.6 mph - N/A   Partly Cloudy
8:55 AM 51.8 °F 50.0 °F 94% 30.09 in 6.2 mi South 5.8 mph - N/A Rain Light Rain
9:25 AM 51.8 °F 50.0 °F 94% 30.12 in 6.2 mi South 5.8 mph - N/A Rain Light Rain
9:55 AM 53.6 °F 51.8 °F 94% 30.12 in 6.2 mi South 5.8 mph - N/A   Mostly Cloudy
10:25 AM 53.6 °F 51.8 °F 94% 30.12 in 6.2 mi South 5.8 mph - N/A Rain Light Rain
10:55 AM 55.4 °F 51.8 °F 88% 30.15 in 6.2 mi South 6.9 mph - N/A   Scattered Clouds
11:00 AM 55 °F 53 °F 88% 30.17 in 8 mi SSW 6.7 mph - - Rain Rain
11:25 AM 55.4 °F 51.8 °F 88% 30.15 in 5.0 mi South 4.6 mph - N/A   Mostly Cloudy
11:55 AM 53.6 °F 53.6 °F 100% 30.18 in 2.2 mi SSW 3.5 mph - N/A   Light Drizzle
12:25 PM 53.6 °F 53.6 °F 100% 30.18 in - SSE 3.5 mph - N/A   Mostly Cloudy
12:55 PM 55.4 °F 55.4 °F 100% 30.18 in 3.1 mi South 4.6 mph - N/A   Mostly Cloudy
1:25 PM 57.2 °F 55.4 °F 94% 30.18 in 3.1 mi Variable 1.2 mph - N/A   Mostly Cloudy
1:55 PM 57.2 °F 55.4 °F 94% 30.18 in 3.7 mi Variable 1.2 mph - N/A   Mostly Cloudy
2:00 PM 57 °F 56 °F 95% 30.21 in 3 mi NNW 2.2 mph - -   Mist
2:25 PM 57.2 °F 55.4 °F 94% 30.21 in 3.7 mi Variable 1.2 mph - N/A   Mostly Cloudy
2:55 PM 57.2 °F 55.4 °F 94% 30.21 in 3.7 mi Variable 1.2 mph - N/A   Mostly Cloudy
3:25 PM 57.2 °F 55.4 °F 94% 30.21 in 4.3 mi Variable 1.2 mph - N/A   Mostly Cloudy
3:55 PM 59.0 °F 55.4 °F 88% 30.21 in 5.0 mi Variable 1.2 mph - N/A   Mostly Cloudy
4:25 PM 59.0 °F 55.4 °F 88% 30.21 in 5.0 mi Variable 1.2 mph - N/A   Overcast
4:55 PM 59.0 °F 57.2 °F 94% 30.21 in 5.0 mi East 2.3 mph - N/A   Overcast
5:25 PM 59.0 °F 57.2 °F 94% 30.24 in 4.3 mi East 2.3 mph - N/A   Overcast
5:55 PM 57.2 °F 57.2 °F 100% 30.21 in 4.3 mi ENE 4.6 mph - N/A   Overcast
6:25 PM 57.2 °F 55.4 °F 94% 30.21 in 3.7 mi NNE 3.5 mph - N/A   Partly Cloudy
6:55 PM 55.4 °F 55.4 °F 100% 30.24 in 3.7 mi Variable 1.2 mph - N/A   Partly Cloudy
7:25 PM 57.2 °F 55.4 °F 94% 30.24 in - East 3.5 mph - N/A   Scattered Clouds
7:55 PM 55.4 °F 55.4 °F 100% 30.24 in 2.8 mi ENE 4.6 mph - N/A   Mostly Cloudy
8:00 PM 56 °F 55 °F 96% 30.27 in 2 mi ENE 4.5 mph - -   Mist
8:25 PM 55.4 °F 55.4 °F 100% 30.24 in 2.5 mi ENE 3.5 mph - N/A   Mostly Cloudy
8:55 PM 55.4 °F 55.4 °F 100% 30.24 in 2.5 mi East 4.6 mph - N/A   Overcast
9:25 PM 55.4 °F 55.4 °F 100% 30.24 in - East 3.5 mph - N/A   Mostly Cloudy
9:55 PM 53.6 °F 53.6 °F 100% 30.24 in - NE 3.5 mph - N/A   Scattered Clouds
10:25 PM 51.8 °F 51.8 °F 100% 30.27 in 1.4 mi East 3.5 mph - N/A Fog Patches of Fog
10:55 PM 51.8 °F 51.8 °F 100% 30.27 in 1.6 mi East 3.5 mph - N/A Fog Patches of Fog
11:00 PM 52 °F 52 °F 99% 30.28 in 2 mi East 4.5 mph - -   Mist
11:25 PM 51.8 °F 51.8 °F 100% 30.27 in 0.2 mi Variable 2.3 mph - N/A Fog Patches of Fog
11:55 PM 53.6 °F 53.6 °F 100% 30.27 in 1.7 mi ENE 3.5 mph - N/A Fog Patches of Fog